Terug naar catalogus

OPS 4682 DEB

ActiefPO
NORAD 51493·DEBRIS·🇺🇸 United States

Gelanceerd Apr 3, 1965 vanaf Vandenberg Space Force Base

Loading…

Volgende Passages (komende 24 uur)

TLE

VersSource: Space-Track

Epoch: Sep 11, 2026, 13:36 UTC

1 51493U 65027GD  26254.56702356  .00000263  00000-0  90219-3 0  9990
2 51493  90.2516  13.2416 0026384 317.1002  42.8060 12.95770886417826

Volg OPS 4682 DEB in realtime met AllMySat

Download on the App Store